Regional Weather Roundup
Issued by NWS

Home | Current Version | Previous Version | Text Only | Print | Product List | Glossary On
Versions: 1 2 3 4 5 6 7 8 9 10 11 12 13 14 15 16 17 18 19 20 21 22 23 24 25 26 27 28 29 30 31 32 33 34 35 36 37 38 39 40 41 42 43 44 45 46 47 48 49 50
000
ASPQ40 PGUM 172012
RWRPQ
WEATHER ROUNDUP FOR THE MARIANAS AND MICRONESIA
NATIONAL WEATHER SERVICE TIYAN GU
600 AM CHST THU DEC 18 2014

GUZ001>004-172100-
MARIANA ISLANDS-

CITY           SKY/WX    TMP DP  RH WIND       PRES   REMARKS
GUAM AIRPORT   PTCLDY    81  75  83 NE12      29.89R
ANDERSEN AFB   PTCLDY    79  75  89 NE16      29.90R
ROTA AIRPORT   PTCLDY    79  75  89 E10       29.92
TINIAN AP      PTCLDY    79  75  89 E12       29.89
SAIPAN AP      PTCLDY    79  73  83 NE10G23   29.91R

$$

PMZ161-172100-
REPUBLIC OF PALAU-

CITY           SKY/WX    TMP DP  RH WIND       PRES   REMARKS
KOROR AP       MOCLDY    81  77  89 NE6       29.81R
KOROR WSO      CLOUDY    81  77  89 E3        29.80R

$$

PMZ171>174-172100-
FEDERATED STATES OF MICRONESIA-

CITY           SKY/WX    TMP DP  RH WIND       PRES   REMARKS
YAP AIRPORT    LGT RAIN  77  75  94 VRB7      29.81R
CHUUK AP       PTCLDY    82  75  78 NE10      29.78R
POHNPEI AP     NOT AVBL
POHNPEI WSO    MOCLDY    82  75  78 E10       29.82R
KOSRAE AP      NOT AVBL

$$

PMZ181-172100-
REPUBLIC OF THE MARSHALL ISLANDS-

CITY           SKY/WX    TMP DP  RH WIND       PRES   REMARKS
KWAJALEIN AP   MOSUNNY   82  73  74 E20       29.85R
MAJURO AP      NOT AVBL
MAJURO WSO     CLOUDY    82  77  83 NE12      29.83R HX  91

$$




USA.gov is the U.S. government's official web portal to all federal, state and local government web resources and services.